sat.trackr.live / text

‹ back to catalog

STARLINK-6227

NORAD 57060 · 2023-088N

PAYLOAD ACTIVE UNKNOWN

§ Identity

Operator
Country
US
Launch date
2023-06-22
Launch site
AFWTR
Launch vehicle
Mass (kg)
RCS (m²)

Purposes: comms

External: N2YO · Heavens-Above · Gunter

§ Orbital elements

Epoch: 2026-05-24T18:34:00.664320Z

Period
94.27 min
Inclination
43.0083°
Eccentricity
0.0001637
Mean motion
15.27577248 rev/d
Perigee alt
481.9 km
Apogee alt
484.2 km
Semi-major
6,861.2 km
B*
2.2499e-5
RAAN
41.3810°
Arg perigee
264.3043°
Mean anomaly
95.7622°
Rev number
16,196

§ Raw data

STARLINK-62271 57060U 23088N   26144.77361880  .00000357  00000+0  22499-4 0  99902 57060  43.0083  41.3810 0001637 264.3043  95.7622 15.27577248161966

JSON: /api/v1/satellites/57060 · /tle

For live sub-satellite position, see the globe view (requires WebGL).

§ Visibility from observer

Set your observer location to see the next 7 days of passes ≥ 10°. The values pass through the URL so the page stays shareable.

No JS? Fill the form by hand. The geolocation button needs JavaScript.